This demonstration page uses our WeatherBlox Daily Observations layout. Learn more.

36.17497, -115.13722

Hourly Observations for June 14, 2018

Temp ( °F °C ) Dew Point ( °F °C ) Humidity (%) Winds ( mph kmh ) Pressure ( in mb ) Visibility ( mi km ) Precip ( " mm )
12:53 am 00:53 Clear 89 31.7 24 -4.4 9 9 S 9 15 29.65 1004 10 16.09344 0 0
1:53 am 01:53 Clear 86 30 27 -2.8 12 12 S 8 13 29.65 1004 10 16.09344 0 0
2:53 am 02:53 Clear 85 29.4 30 -1.1 14 14 WNW 3 6 29.65 1004 10 16.09344 0 0
3:53 am 03:53 Clear 81 27.2 32 0 17 17 Calm 29.65 1004 10 16.09344 0 0
4:53 am 04:53 Clear 82 27.8 31 -0.6 16 16 Calm 29.65 1004 10 16.09344 0 0
5:53 am 05:53 Sunny 78 25.6 33 0.6 19 19 WNW 3 6 29.68 1005 10 16.09344 0 0
6:53 am 06:53 Sunny 80 26.7 33 0.6 18 18 E 5 7 29.71 1006 10 16.09344 0 0
7:53 am 07:53 Sunny 86 30 30 -1.1 13 13 Calm 29.71 1006 10 16.09344 0 0
8:35 am 08:35 Sunny 90 32.2 33 0.6 13 13 S 13 20 29.59 1002 10 16.09344 0 0
8:53 am 08:53 Sunny 92 33.3 33 0.6 12 12 S 10 17 29.71 1006 10 16.09344 0 0
9:53 am 09:53 Sunny 96 35.6 31 -0.6 10 10 S 20 31 29.71 1006 10 16.09344 0 0
10:53 am 10:53 Sunny 98 36.7 30 -1.1 9 9 S 20 31 29.71 1006 10 16.09344 0 0
11:53 am 11:53 Sunny 99 37.2 24 -4.4 7 7 SSW 18 30 29.68 1005 10 16.09344 0 0
12:53 pm 12:53 Sunny 102 38.9 19 -7.2 5 5 SW 18 30 29.68 1005 10 16.09344 0 0
1:53 pm 13:53 Sunny 103 39.4 11 -11.7 3 3 SW 22 35 29.65 1004 10 16.09344 0 0
2:53 pm 14:53 Sunny 103 39.4 8 -13.3 3 3 SW 23 37 29.62 1003 10 16.09344 0 0
3:28 pm 15:28 Sunny with Nearby Thunderstorms 103 39.4 13 -10.6 4 4 SW 18 30 29.47 998 10 16.09344 0 0
3:46 pm 15:46 Sunny 103 39.4 16 -8.9 4 4 SW 16 26 29.47 998 10 16.09344 0 0
3:53 pm 15:53 Sunny 104 40 16 -8.9 4 4 SW 20 31 29.62 1003 10 16.09344 0 0
4:53 pm 16:53 Sunny 103 39.4 14 -10 4 4 SW 21 33 29.59 1002 10 16.09344 0 0
5:53 pm 17:53 Sunny 102 38.9 12 -11.1 4 4 SW 18 30 29.59 1002 10 16.09344 0 0
6:53 pm 18:53 Sunny 101 38.3 9 -12.8 3 3 WSW 18 30 29.59 1002 10 16.09344 0 0
7:53 pm 19:53 Sunny 99 37.2 16 -8.9 5 5 SW 13 20 29.59 1002 10 16.09344 0 0
8:53 pm 20:53 Clear 97 36.1 20 -6.7 6 6 SSW 10 17 29.59 1002 10 16.09344 0 0
9:53 pm 21:53 Clear 94 34.4 19 -7.2 6 6 WSW 8 13 29.62 1003 10 16.09344 0 0
10:53 pm 22:53 Clear 93 33.9 16 -8.9 6 6 SW 7 11 29.62 1003 10 16.09344 0 0
11:53 pm 23:53 Clear 91 32.8 19 -7.2 7 7 SW 10 17 29.62 1003 10 16.09344 0 0

Powered by AerisWeather